QPF
0.00 0.00 0.00 0.00 0.00 0.00 0.00 0.00 0.00 0.00 0.00 0.00 0.00 0.00 0.00 0.00 0.00 0.00 0.00 0.00 0.00 0.00 0.02 0.04 0.10 0.16 0.29 0.46 0.43 0.33 0.20 0.11 0.06 0.04 0.03 0.02 0.01 0.00 0.00 0.00 0.00 0.00 0.00 0.01
0.00 0.00 0.00 0.00 0.00 0.00 0.00 0.00 0.00 0.00 0.00 0.00 0.00 0.00 0.00 0.00 0.00 0.00 0.00 0.00 0.00 0.00 0.01 0.01 0.02 0.04 0.07 0.13 0.19 0.20 0.16 0.13 0.07 0.06 0.05 0.05 0.02 0.01 0.01 0.02 0.04 0.02 0.01 0.01
0.00 0.00 0.00 0.00 0.00 0.00 0.00 0.00 0.00 0.00 0.00 0.00 0.00 0.00 0.00 0.00 0.00 0.00 0.00 0.00 0.00 0.00 0.00 0.00 0.00 0.00 0.01 0.04 0.07 0.09 0.10 0.11 0.08 0.08 0.07 0.07 0.07 0.06 0.06 0.08 0.11 0.08 0.05 0.03
0.00 0.00 0.00 0.00 0.00 0.00 0.00 0.00 0.00 0.00 0.00 0.00 0.00 0.00 0.00 0.00 0.00 0.00 0.00 0.00 0.00 0.00 0.00 0.00 0.00 0.00 0.00 0.01 0.02 0.05 0.07 0.08 0.08 0.08 0.09 0.09 0.11 0.13 0.13 0.09 0.10 0.07 0.03 0.01
0.00 0.00 0.00 0.00 0.00 0.00 0.00 0.00 0.00 0.00 0.00 0.00 0.00 0.00 0.00 0.00 0.00 0.00 0.00 0.00 0.00 0.00 0.00 0.00 0.00 0.00 0.00 0.00 0.01 0.03 0.03 0.04 0.04 0.04 0.04 0.05 0.06 0.05 0.03 0.02 0.02 0.01 0.00 0.00
0.00 0.00 0.00 0.00 0.00 0.00 0.00 0.00 0.00 0.00 0.00 0.00 0.00 0.00 0.00 0.00 0.00 0.00 0.00 0.00 0.00 0.00 0.00 0.00 0.00 0.00 0.00 0.00 0.01 0.01 0.01 0.02 0.02 0.02 0.02 0.01 0.01 0.01 0.00 0.00 0.00 0.00 0.00 0.00
0.00 0.00 0.00 0.00 0.00 0.00 0.00 0.00 0.00 0.00 0.00 0.00 0.00 0.00 0.00 0.00 0.00 0.00 0.00 0.00 0.00 0.00 0.00 0.00 0.00 0.00 0.00 0.00 0.00 0.00 0.00 0.00 0.00 0.00 0.00 0.00 0.00 0.00 0.00 0.00 0.00 0.00 0.00 0.00
0.00 0.00 0.00 0.00 0.00 0.00 0.00 0.00 0.00 0.00 0.00 0.00 0.00 0.00 0.00 0.00 0.00 0.00 0.00 0.00 0.00 0.00 0.00 0.00 0.00 0.00 0.00 0.00 0.00 0.00 0.00 0.00 0.00 0.00 0.00 0.00 0.00 0.00 0.00 0.00 0.00 0.00 0.00 0.00
0.00 0.00 0.00 0.00 0.00 0.00 0.00 0.00 0.00 0.00 0.00 0.00 0.00 0.00 0.00 0.00 0.00 0.00 0.00 0.00 0.00 0.00 0.00 0.00 0.00 0.00 0.00 0.00 0.00 0.00 0.00 0.00 0.00 0.00 0.00 0.00 0.00 0.00 0.00 0.00 0.01 0.00 0.01 0.00
0.00 0.00 0.00 0.00 0.00 0.00 0.00 0.00 0.00 0.00 0.00 0.00 0.00 0.00 0.00 0.00 0.00 0.00 0.00 0.00 0.00 0.00 0.00 0.00 0.00 0.00 0.00 0.00 0.00 0.00 0.00 0.00 0.00 0.00 0.00 0.00 0.00 0.00 0.01 0.01 0.01 0.01 0.01 0.01
0.00 0.00 0.00 0.00 0.00 0.00 0.00 0.00 0.00 0.00 0.00 0.00 0.00 0.00 0.00 0.00 0.00 0.00 0.00 0.00 0.00 0.00 0.00 0.00 0.00 0.00 0.00 0.00 0.00 0.00 0.00 0.00 0.00 0.00 0.00 0.00 0.00 0.01 0.01 0.01 0.01 0.02 0.02 0.02
0.00 0.00 0.00 0.00 0.00 0.00 0.00 0.00 0.00 0.00 0.00 0.00 0.00 0.00 0.00 0.00 0.01 0.01 0.00 0.00 0.00 0.00 0.00 0.00 0.00 0.00 0.00 0.00 0.00 0.00 0.00 0.00 0.00 0.00 0.00 0.00 0.01 0.01 0.01 0.02 0.02 0.02 0.03 0.03
0.00 0.00 0.00 0.00 0.00 0.00 0.00 0.00 0.00 0.00 0.00 0.00 0.00 0.01 0.00 0.00 0.00 0.00 0.00 0.00 0.00 0.00 0.00 0.00 0.00 0.00 0.00 0.00 0.00 0.00 0.00 0.00 0.00 0.00 0.00 0.00 0.01 0.01 0.02 0.02 0.03 0.03 0.03 0.03
0.00 0.00 0.00 0.00 0.00 0.00 0.00 0.00 0.00 0.00 0.00 0.00 0.00 0.01 0.00 0.00 0.00 0.00 0.00 0.00 0.00 0.00 0.00 0.00 0.00 0.00 0.00 0.00 0.00 0.00 0.00 0.00 0.00 0.00 0.00 0.00 0.01 0.01 0.02 0.03 0.03 0.03 0.03 0.03
0.00 0.00 0.00 0.00 0.00 0.00 0.00 0.00 0.00 0.00 0.00 0.00 0.00 0.01 0.00 0.00 0.00 0.00 0.00 0.00 0.00 0.00 0.00 0.00 0.00 0.00 0.00 0.00 0.00 0.00 0.00 0.00 0.00 0.00 0.00 0.01 0.01 0.02 0.03 0.03 0.04 0.03 0.03 0.02
0.00 0.00 0.00 0.00 0.00 0.00 0.00 0.00 0.00 0.00 0.00 0.00 0.01 0.01 0.00 0.00 0.00 0.00 0.00 0.00 0.00 0.00 0.00 0.00 0.00 0.00 0.00 0.00 0.00 0.00 0.00 0.00 0.00 0.00 0.01 0.01 0.01 0.02 0.03 0.03 0.03 0.02 0.01 0.01
0.00 0.00 0.00 0.00 0.00 0.00 0.00 0.00 0.00 0.00 0.00 0.00 0.01 0.02 0.00 0.00 0.00 0.00 0.00 0.00 0.00 0.00 0.00 0.00 0.00 0.00 0.00 0.00 0.00 0.00 0.00 0.00 0.00 0.01 0.00 0.01 0.01 0.01 0.02 0.01 0.01 0.01 0.01 0.01
0.00 0.01 0.01 0.01 0.01 0.01 0.00 0.00 0.00 0.00 0.00 0.00 0.00 0.00 0.00 0.00 0.00 0.00 0.00 0.00 0.00 0.00 0.00 0.00 0.00 0.00 0.00 0.00 0.00 0.00 0.00 0.00 0.00 0.00 0.00 0.00 0.01 0.01 0.00 0.00 0.01 0.01 0.01 0.02
0.01 0.03 0.05 0.04 0.03 0.02 0.01 0.00 0.00 0.00 0.00 0.00 0.00 0.00 0.00 0.00 0.00 0.00 0.00 0.00 0.00 0.00 0.00 0.00 0.00 0.00 0.00 0.00 0.00 0.00 0.00 0.00 0.00 0.00 0.00 0.00 0.00 0.00 0.00 0.01 0.01 0.02 0.02 0.02
0.01 0.03 0.07 0.11 0.13 0.10 0.04 0.00 0.00 0.00 0.00 0.00 0.00 0.00 0.00 0.00 0.00 0.00 0.00 0.00 0.00 0.00 0.00 0.00 0.00 0.00 0.00 0.00 0.00 0.00 0.00 0.00 0.00 0.00 0.00 0.00 0.00 0.00 0.01 0.01 0.02 0.02 0.02 0.01
0.04 0.04 0.07 0.13 0.16 0.10 0.03 0.01 0.01 0.01 0.01 0.00 0.00 0.00 0.00 0.00 0.00 0.00 0.00 0.00 0.00 0.00 0.00 0.00 0.00 0.00 0.00 0.00 0.00 0.01 0.01 0.01 0.00 0.00 0.00 0.00 0.00 0.00 0.00 0.01 0.01 0.01 0.01 0.01
0.15 0.12 0.10 0.12 0.15 0.13 0.03 0.01 0.01 0.01 0.00 0.00 0.00 0.00 0.00 0.00 0.00 0.00 0.00 0.00 0.00 0.00 0.00 0.00 0.00 0.00 0.00 0.00 0.00 0.01 0.01 0.01 0.00 0.00 0.00 0.01 0.00 0.00 0.00 0.00 0.01 0.01 0.01 0.00
0.25 0.18 0.12 0.12 0.14 0.08 0.03 0.01 0.00 0.00 0.00 0.00 0.00 0.00 0.00 0.00 0.00 0.00 0.00 0.00 0.00 0.00 0.00 0.00 0.00 0.00 0.00 0.00 0.00 0.01 0.01 0.00 0.00 0.00 0.01 0.00 0.00 0.00 0.00 0.00 0.00 0.00 0.00 0.00
0.21 0.13 0.08 0.07 0.08 0.06 0.03 0.01 0.00 0.00 0.00 0.00 0.00 0.00 0.00 0.00 0.00 0.00 0.00 0.00 0.00 0.00 0.00 0.00 0.00 0.00 0.00 0.00 0.00 0.00 0.00 0.00 0.00 0.00 0.00 0.00 0.00 0.00 0.00 0.00 0.00 0.00 0.00 0.00
0.09 0.06 0.05 0.05 0.06 0.05 0.03 0.01 0.00 0.00 0.00 0.00 0.00 0.00 0.00 0.00 0.00 0.00 0.00 0.00 0.00 0.00 0.00 0.00 0.00 0.00 0.00 0.00 0.00 0.00 0.00 0.00 0.00 0.00 0.00 0.00 0.00 0.00 0.00 0.00 0.00 0.00 0.00 0.00
0.02 0.03 0.05 0.05 0.02 0.02 0.01 0.00 0.00 0.00 0.00 0.00 0.00 0.00 0.00 0.00 0.00 0.00 0.00 0.00 0.00 0.00 0.00 0.00 0.00 0.00 0.00 0.00 0.00 0.00 0.00 0.00 0.00 0.00 0.00 0.00 0.00 0.00 0.00 0.00 0.00 0.00 0.00 0.00
MSLP
1009.14 1009.51 1009.67 1009.64 1009.47 1009.24 1009.02 1008.85 1008.75 1008.69 1008.66 1008.60 1008.50 1008.34 1008.16 1007.98 1007.87 1007.88 1008.04 1008.38 1008.88 1009.52 1010.24 1010.98 1011.70 1012.35 1012.91 1013.39 1013.77 1014.07 1014.31 1014.49 1014.62 1014.70 1014.74 1014.75 1014.73 1014.71 1014.70 1014.71 1014.77 1014.87 1015.02 1015.19
1009.39 1009.62 1009.63 1009.48 1009.23 1008.96 1008.76 1008.65 1008.64 1008.70 1008.79 1008.85 1008.85 1008.79 1008.69 1008.59 1008.55 1008.63 1008.86 1009.27 1009.83 1010.51 1011.26 1012.00 1012.70 1013.30 1013.80 1014.19 1014.50 1014.75 1014.94 1015.09 1015.21 1015.30 1015.34 1015.34 1015.30 1015.24 1015.17 1015.11 1015.10 1015.14 1015.23 1015.39
1009.38 1009.49 1009.39 1009.14 1008.86 1008.61 1008.46 1008.45 1008.56 1008.76 1008.98 1009.17 1009.29 1009.32 1009.30 1009.27 1009.29 1009.42 1009.71 1010.16 1010.76 1011.47 1012.21 1012.93 1013.58 1014.12 1014.55 1014.87 1015.12 1015.31 1015.48 1015.63 1015.77 1015.88 1015.95 1015.97 1015.93 1015.85 1015.74 1015.64 1015.56 1015.53 1015.57 1015.68
1009.06 1009.07 1008.90 1008.63 1008.37 1008.19 1008.15 1008.28 1008.55 1008.90 1009.26 1009.57 1009.78 1009.90 1009.94 1009.95 1010.01 1010.18 1010.50 1010.98 1011.59 1012.30 1013.03 1013.72 1014.32 1014.80 1015.17 1015.43 1015.63 1015.79 1015.95 1016.12 1016.29 1016.44 1016.56 1016.62 1016.61 1016.53 1016.40 1016.26 1016.12 1016.03 1016.01 1016.05
1008.47 1008.41 1008.22 1007.99 1007.80 1007.74 1007.86 1008.15 1008.59 1009.09 1009.59 1010.00 1010.30 1010.47 1010.54 1010.58 1010.66 1010.84 1011.17 1011.66 1012.27 1012.97 1013.68 1014.34 1014.91 1015.35 1015.67 1015.90 1016.06 1016.21 1016.38 1016.56 1016.77 1016.98 1017.15 1017.26 1017.28 1017.23 1017.09 1016.92 1016.74 1016.59 1016.49 1016.46
1007.69 1007.61 1007.44 1007.28 1007.21 1007.31 1007.60 1008.07 1008.67 1009.31 1009.92 1010.41 1010.77 1010.97 1011.06 1011.10 1011.17 1011.35 1011.67 1012.15 1012.76 1013.45 1014.15 1014.81 1015.36 1015.78 1016.09 1016.30 1016.46 1016.61 1016.79 1017.00 1017.24 1017.49 1017.71 1017.86 1017.92 1017.89 1017.75 1017.56 1017.34 1017.13 1016.96 1016.85
1006.88 1006.79 1006.67 1006.61 1006.68 1006.93 1007.39 1008.01 1008.75 1009.50 1010.19 1010.74 1011.12 1011.33 1011.41 1011.44 1011.50 1011.67 1011.98 1012.45 1013.06 1013.75 1014.47 1015.13 1015.69 1016.13 1016.45 1016.67 1016.85 1017.01 1017.20 1017.44 1017.70 1017.98 1018.22 1018.40 1018.48 1018.46 1018.32 1018.11 1017.85 1017.59 1017.35 1017.16
1006.20 1006.11 1006.05 1006.08 1006.27 1006.66 1007.23 1007.98 1008.80 1009.62 1010.35 1010.91 1011.29 1011.50 1011.57 1011.59 1011.63 1011.79 1012.10 1012.57 1013.19 1013.90 1014.64 1015.33 1015.93 1016.41 1016.77 1017.04 1017.24 1017.43 1017.64 1017.88 1018.15 1018.42 1018.67 1018.85 1018.93 1018.90 1018.76 1018.53 1018.23 1017.92 1017.63 1017.37
1005.75 1005.67 1005.65 1005.76 1006.03 1006.50 1007.15 1007.94 1008.79 1009.62 1010.34 1010.89 1011.25 1011.44 1011.51 1011.52 1011.58 1011.74 1012.06 1012.55 1013.19 1013.94 1014.71 1015.45 1016.11 1016.65 1017.07 1017.39 1017.64 1017.85 1018.07 1018.31 1018.57 1018.82 1019.04 1019.20 1019.26 1019.20 1019.04 1018.78 1018.47 1018.12 1017.79 1017.48
1005.57 1005.50 1005.51 1005.66 1005.96 1006.45 1007.10 1007.87 1008.69 1009.47 1010.14 1010.66 1011.00 1011.18 1011.26 1011.30 1011.38 1011.58 1011.94 1012.46 1013.14 1013.91 1014.73 1015.53 1016.24 1016.85 1017.34 1017.72 1018.02 1018.27 1018.51 1018.73 1018.96 1019.17 1019.34 1019.45 1019.46 1019.37 1019.17 1018.90 1018.56 1018.20 1017.85 1017.52
1005.63 1005.58 1005.60 1005.75 1006.04 1006.49 1007.07 1007.76 1008.48 1009.16 1009.76 1010.23 1010.55 1010.75 1010.87 1010.97 1011.12 1011.39 1011.80 1012.38 1013.09 1013.91 1014.76 1015.60 1016.37 1017.04 1017.59 1018.03 1018.38 1018.66 1018.90 1019.12 1019.31 1019.47 1019.57 1019.61 1019.57 1019.43 1019.20 1018.90 1018.56 1018.20 1017.85 1017.52
1005.85 1005.80 1005.83 1005.95 1006.19 1006.55 1007.02 1007.57 1008.16 1008.73 1009.24 1009.66 1009.99 1010.23 1010.43 1010.63 1010.89 1011.26 1011.75 1012.39 1013.15 1013.99 1014.87 1015.73 1016.53 1017.23 1017.83 1018.32 1018.71 1019.02 1019.26 1019.46 1019.61 1019.71 1019.75 1019.72 1019.60 1019.41 1019.15 1018.84 1018.49 1018.15 1017.82 1017.53
1006.12 1006.09 1006.10 1006.18 1006.34 1006.59 1006.92 1007.32 1007.76 1008.21 1008.64 1009.04 1009.39 1009.72 1010.03 1010.37 1010.78 1011.27 1011.87 1012.57 1013.37 1014.22 1015.10 1015.95 1016.75 1017.47 1018.08 1018.59 1019.01 1019.33 1019.58 1019.76 1019.87 1019.91 1019.88 1019.78 1019.60 1019.36 1019.07 1018.74 1018.40 1018.08 1017.79 1017.54
1006.38 1006.36 1006.36 1006.39 1006.47 1006.59 1006.78 1007.02 1007.32 1007.66 1008.04 1008.44 1008.85 1009.29 1009.76 1010.27 1010.84 1011.48 1012.19 1012.97 1013.79 1014.64 1015.49 1016.31 1017.07 1017.76 1018.36 1018.87 1019.29 1019.61 1019.85 1020.01 1020.08 1020.07 1019.98 1019.81 1019.58 1019.28 1018.96 1018.62 1018.29 1018.00 1017.75 1017.55
1006.61 1006.61 1006.60 1006.59 1006.57 1006.58 1006.63 1006.74 1006.92 1007.18 1007.52 1007.95 1008.45 1009.03 1009.68 1010.38 1011.13 1011.92 1012.74 1013.58 1014.43 1015.26 1016.06 1016.81 1017.51 1018.13 1018.69 1019.16 1019.56 1019.87 1020.08 1020.21 1020.24 1020.19 1020.04 1019.81 1019.52 1019.18 1018.83 1018.48 1018.16 1017.89 1017.67 1017.51
1006.87 1006.87 1006.85 1006.79 1006.70 1006.61 1006.54 1006.53 1006.62 1006.82 1007.16 1007.64 1008.25 1008.98 1009.80 1010.69 1011.62 1012.56 1013.49 1014.39 1015.23 1016.03 1016.76 1017.43 1018.03 1018.57 1019.05 1019.47 1019.81 1020.08 1020.26 1020.35 1020.35 1020.24 1020.04 1019.76 1019.42 1019.04 1018.66 1018.30 1017.98 1017.72 1017.54 1017.41
1007.23 1007.23 1007.18 1007.07 1006.92 1006.74 1006.58 1006.48 1006.50 1006.67 1007.03 1007.56 1008.28 1009.15 1010.13 1011.19 1012.28 1013.35 1014.36 1015.30 1016.14 1016.88 1017.54 1018.10 1018.60 1019.04 1019.43 1019.76 1020.04 1020.25 1020.39 1020.43 1020.37 1020.22 1019.97 1019.65 1019.26 1018.85 1018.45 1018.07 1017.75 1017.51 1017.34 1017.24
1007.77 1007.74 1007.66 1007.50 1007.28 1007.03 1006.80 1006.64 1006.62 1006.77 1007.14 1007.73 1008.53 1009.52 1010.63 1011.83 1013.03 1014.19 1015.26 1016.22 1017.04 1017.73 1018.30 1018.77 1019.16 1019.49 1019.78 1020.02 1020.22 1020.36 1020.43 1020.42 1020.31 1020.11 1019.82 1019.46 1019.04 1018.60 1018.18 1017.80 1017.49 1017.25 1017.09 1017.01
1008.50 1008.43 1008.29 1008.08 1007.81 1007.50 1007.22 1007.02 1006.97 1007.12 1007.50 1008.13 1008.99 1010.05 1011.24 1012.51 1013.78 1014.99 1016.09 1017.04 1017.84 1018.47 1018.97 1019.35 1019.64 1019.87 1020.06 1020.21 1020.33 1020.39 1020.39 1020.32 1020.16 1019.91 1019.58 1019.19 1018.75 1018.31 1017.89 1017.51 1017.21 1016.99 1016.85 1016.79
1009.35 1009.23 1009.03 1008.77 1008.46 1008.12 1007.81 1007.59 1007.53 1007.67 1008.07 1008.71 1009.59 1010.67 1011.90 1013.19 1014.48 1015.69 1016.78 1017.71 1018.46 1019.04 1019.47 1019.78 1019.99 1020.14 1020.24 1020.31 1020.34 1020.33 1020.27 1020.13 1019.92 1019.63 1019.27 1018.86 1018.42 1017.99 1017.58 1017.23 1016.96 1016.77 1016.67 1016.63
1010.22 1010.03 1009.78 1009.48 1009.14 1008.79 1008.48 1008.27 1008.22 1008.37 1008.77 1009.41 1010.28 1011.35 1012.55 1013.82 1015.07 1016.25 1017.29 1018.18 1018.88 1019.42 1019.79 1020.04 1020.20 1020.28 1020.32 1020.31 1020.28 1020.20 1020.06 1019.87 1019.61 1019.28 1018.91 1018.50 1018.07 1017.67 1017.31 1017.01 1016.79 1016.66 1016.60 1016.61
1010.93 1010.69 1010.41 1010.10 1009.76 1009.43 1009.15 1008.97 1008.95 1009.14 1009.54 1010.17 1011.02 1012.04 1013.18 1014.38 1015.56 1016.67 1017.65 1018.47 1019.13 1019.61 1019.95 1020.16 1020.27 1020.31 1020.30 1020.24 1020.14 1020.00 1019.81 1019.56 1019.26 1018.91 1018.53 1018.14 1017.75 1017.40 1017.10 1016.88 1016.74 1016.68 1016.69 1016.75
1011.38 1011.11 1010.82 1010.52 1010.22 1009.95 1009.74 1009.63 1009.68 1009.90 1010.33 1010.95 1011.77 1012.73 1013.79 1014.89 1015.98 1016.99 1017.89 1018.64 1019.24 1019.69 1019.99 1020.17 1020.26 1020.27 1020.23 1020.12 1019.98 1019.78 1019.54 1019.25 1018.92 1018.56 1018.18 1017.82 1017.48 1017.20 1016.98 1016.86 1016.81 1016.84 1016.93 1017.06
1011.49 1011.22 1010.95 1010.70 1010.48 1010.30 1010.20 1010.20 1010.34 1010.64 1011.10 1011.73 1012.51 1013.41 1014.39 1015.39 1016.37 1017.28 1018.08 1018.76 1019.31 1019.71 1019.99 1020.15 1020.22 1020.21 1020.14 1020.01 1019.82 1019.58 1019.30 1018.97 1018.62 1018.26 1017.90 1017.57 1017.30 1017.10 1016.98 1016.95 1017.01 1017.13 1017.31 1017.50
1011.31 1011.06 1010.85 1010.68 1010.57 1010.52 1010.55 1010.69 1010.94 1011.33 1011.85 1012.50 1013.26 1014.10 1015.00 1015.90 1016.78 1017.59 1018.30 1018.90 1019.39 1019.75 1020.00 1020.15 1020.21 1020.18 1020.09 1019.93 1019.71 1019.44 1019.12 1018.77 1018.41 1018.05 1017.73 1017.45 1017.24 1017.12 1017.10 1017.17 1017.32 1017.54 1017.78 1018.03
1010.95 1010.75 1010.62 1010.56 1010.57 1010.66 1010.84 1011.12 1011.50 1011.99 1012.58 1013.26 1014.01 1014.81 1015.64 1016.46 1017.24 1017.95 1018.58 1019.11 1019.54 1019.86 1020.08 1020.20 1020.24 1020.20 1020.08 1019.90 1019.66 1019.37 1019.03 1018.67 1018.32 1017.98 1017.69 1017.47 1017.33 1017.30 1017.36 1017.52 1017.75 1018.03 1018.32 1018.61
Thickness
5771 5758 5755 5766 5776 5779 5781 5782 5786 5806 5825 5810 5793 5788 5793 5799 5796 5793 5794 5792 5776 5766 5764 5759 5751 5740 5729 5717 5708 5703 5701 5701 5701 5698 5695 5691 5687 5684 5681 5678 5674 5668 5662 5655
5755 5753 5770 5781 5784 5784 5782 5776 5780 5795 5811 5798 5783 5779 5785 5784 5781 5780 5778 5772 5767 5759 5754 5749 5740 5732 5722 5712 5704 5699 5694 5691 5688 5685 5681 5678 5674 5671 5667 5663 5659 5654 5648 5642
5749 5766 5783 5778 5773 5774 5773 5768 5771 5779 5796 5795 5774 5764 5769 5770 5771 5769 5768 5764 5758 5750 5741 5736 5730 5722 5715 5706 5700 5695 5689 5682 5677 5673 5670 5666 5661 5655 5650 5645 5640 5636 5632 5626
5757 5774 5778 5775 5772 5772 5759 5773 5774 5775 5771 5771 5768 5745 5757 5753 5749 5749 5750 5747 5742 5737 5729 5723 5717 5710 5704 5698 5693 5686 5680 5673 5667 5662 5657 5651 5643 5636 5632 5628 5624 5621 5616 5611
5754 5769 5768 5765 5767 5768 5764 5779 5777 5775 5765 5760 5771 5755 5749 5744 5729 5729 5731 5729 5726 5722 5715 5708 5702 5698 5693 5689 5683 5676 5669 5662 5656 5650 5643 5637 5629 5624 5620 5616 5612 5607 5602 5596
5762 5778 5778 5775 5780 5774 5773 5771 5768 5766 5758 5736 5754 5753 5746 5735 5724 5719 5718 5716 5714 5709 5704 5697 5692 5687 5682 5678 5671 5664 5656 5649 5643 5637 5631 5624 5617 5611 5607 5603 5598 5593 5586 5580
5746 5761 5776 5781 5766 5769 5764 5746 5726 5720 5722 5730 5761 5755 5746 5741 5732 5723 5713 5709 5707 5703 5697 5689 5682 5675 5669 5663 5657 5651 5643 5636 5630 5624 5618 5611 5605 5600 5595 5589 5582 5574 5568 5561
5734 5739 5762 5771 5759 5754 5750 5742 5719 5709 5718 5736 5750 5734 5717 5735 5731 5722 5713 5708 5703 5698 5691 5682 5673 5666 5658 5650 5643 5636 5629 5623 5618 5612 5605 5599 5593 5587 5579 5570 5561 5553 5546 5539
5735 5744 5774 5775 5771 5758 5746 5742 5748 5732 5730 5725 5731 5705 5706 5717 5712 5708 5705 5701 5696 5690 5682 5673 5664 5656 5648 5639 5631 5624 5617 5610 5605 5598 5592 5586 5578 5570 5561 5552 5543 5534 5525 5517
5741 5731 5753 5764 5764 5760 5755 5752 5743 5727 5708 5705 5727 5722 5704 5701 5699 5698 5695 5691 5686 5681 5673 5663 5655 5647 5638 5631 5622 5614 5606 5599 5592 5585 5577 5570 5561 5552 5544 5535 5526 5516 5508 5501
5747 5727 5734 5749 5742 5740 5744 5737 5732 5729 5730 5712 5706 5714 5724 5708 5700 5692 5687 5684 5679 5673 5663 5654 5646 5637 5629 5620 5611 5602 5594 5586 5577 5570 5561 5553 5545 5537 5529 5521 5513 5506 5499 5493
5741 5730 5718 5733 5756 5760 5746 5741 5732 5710 5710 5720 5715 5700 5723 5712 5701 5690 5682 5678 5674 5666 5656 5646 5636 5626 5616 5606 5597 5588 5580 5571 5563 5555 5547 5539 5531 5523 5517 5511 5505 5499 5494 5489
5713 5707 5697 5704 5724 5741 5732 5736 5738 5731 5720 5710 5703 5689 5711 5702 5693 5685 5676 5668 5661 5653 5644 5635 5624 5613 5602 5593 5584 5575 5566 5557 5550 5542 5535 5527 5520 5514 5509 5504 5499 5494 5489 5485
5701 5690 5685 5685 5706 5727 5723 5723 5728 5722 5710 5706 5709 5693 5692 5686 5678 5671 5664 5656 5648 5639 5630 5622 5612 5601 5590 5581 5571 5563 5554 5545 5538 5531 5524 5517 5512 5508 5503 5499 5494 5490 5485 5480
5689 5677 5684 5694 5708 5717 5716 5706 5705 5701 5703 5703 5705 5691 5682 5676 5667 5659 5652 5645 5636 5627 5619 5609 5599 5588 5579 5569 5559 5551 5542 5534 5527 5520 5515 5510 5507 5503 5499 5495 5491 5485 5479 5474
5676 5666 5671 5676 5694 5702 5704 5705 5697 5694 5694 5694 5682 5668 5676 5669 5659 5648 5641 5634 5626 5617 5608 5598 5587 5577 5566 5556 5547 5539 5531 5525 5518 5512 5509 5506 5503 5500 5496 5491 5486 5480 5474 5467
5652 5650 5647 5653 5675 5681 5678 5694 5698 5697 5695 5685 5656 5648 5657 5650 5643 5636 5630 5623 5614 5604 5595 5584 5574 5564 5554 5544 5535 5528 5523 5518 5513 5509 5506 5503 5499 5496 5491 5487 5481 5474 5468 5460
5637 5634 5634 5639 5648 5640 5671 5697 5698 5692 5681 5675 5659 5648 5646 5638 5632 5625 5619 5610 5600 5590 5580 5570 5560 5552 5543 5535 5527 5521 5516 5512 5509 5506 5502 5500 5496 5491 5487 5482 5476 5469 5461 5454
5636 5628 5620 5621 5628 5646 5660 5673 5681 5671 5654 5661 5651 5642 5632 5626 5615 5605 5601 5595 5584 5574 5564 5555 5547 5541 5533 5526 5519 5514 5510 5508 5506 5503 5499 5496 5491 5487 5482 5478 5470 5463 5456 5449
5623 5619 5605 5600 5601 5613 5638 5657 5669 5656 5630 5645 5641 5630 5621 5614 5599 5588 5587 5579 5569 5559 5550 5543 5537 5531 5524 5517 5512 5507 5506 5505 5503 5500 5497 5493 5488 5484 5479 5473 5466 5459 5452 5444
5585 5598 5599 5596 5595 5597 5626 5641 5642 5615 5614 5629 5625 5616 5609 5600 5593 5580 5573 5564 5555 5546 5538 5533 5528 5522 5515 5510 5506 5504 5504 5504 5501 5499 5495 5492 5488 5483 5478 5470 5463 5455 5448 5439
5555 5569 5594 5605 5592 5580 5611 5619 5612 5611 5618 5616 5610 5601 5590 5583 5575 5568 5560 5552 5543 5536 5529 5524 5519 5514 5509 5505 5503 5503 5503 5502 5500 5498 5495 5491 5487 5481 5476 5468 5460 5453 5444 5435
5546 5559 5575 5580 5578 5588 5596 5600 5604 5608 5606 5603 5597 5589 5582 5573 5566 5559 5550 5541 5534 5527 5521 5516 5513 5509 5505 5504 5503 5503 5502 5502 5500 5497 5495 5491 5487 5481 5474 5466 5458 5449 5439 5428
5542 5556 5567 5568 5570 5579 5583 5587 5589 5591 5591 5590 5586 5581 5575 5566 5558 5550 5541 5533 5526 5520 5514 5511 5508 5505 5504 5504 5505 5504 5503 5501 5499 5496 5493 5490 5485 5478 5470 5464 5455 5443 5430 5416
5542 5552 5561 5563 5563 5566 5568 5575 5576 5577 5578 5577 5575 5571 5564 5557 5549 5540 5532 5525 5519 5514 5509 5505 5503 5503 5504 5505 5506 5504 5502 5500 5497 5494 5489 5485 5481 5472 5465 5456 5441 5428 5410 5398
5551 5549 5551 5553 5561 5562 5562 5567 5567 5566 5567 5566 5562 5557 5553 5546 5539 5532 5524 5517 5512 5507 5503 5500 5500 5502 5505 5506 5505 5503 5500 5498 5493 5490 5483 5479 5474 5466 5459 5449 5431 5414 5401 5390